FW2316 Weather Reports


time (UTC)temp
C
wind
direction
speed
KPH
gust
KPH
rain 1hr
cm
rain 24hr
cm
rain mn
cm
humidity
%
barometer
mb
20260503193032 24 288 1.6 9.7 0.00 0.00 0.00 57 1013.7
20260503192627 24 222 0.0 4.8 0.00 0.00 0.00 58 1013.8
20260503192026 23 260 0.0 4.8 0.00 0.00 0.00 57 1013.8
20260503191524 23 312 1.6 4.8 0.00 0.00 0.00 57 1013.9
20260503191024 23 304 0.0 3.2 0.00 0.00 0.00 56 1013.9
20260503190524 24 351 0.0 3.2 0.00 0.00 0.00 55 1013.9
20260503190022 24 24 0.0 4.8 0.00 0.00 0.00 56 1013.9
20260503185521 23 346 0.0 4.8 0.00 0.00 0.00 54 1013.9
20260503185026 23 190 0.0 6.4 0.00 0.00 0.00 52 1014.0
20260503184519 23 222 0.0 6.4 0.00 0.00 0.00 54 1014.0
20260503184018 23 214 1.6 6.4 0.00 0.00 0.00 56 1014.2
20260503183518 23 336 0.0 4.8 0.00 0.00 0.00 56 1014.2
20260503183017 23 355 0.0 3.2 0.00 0.00 0.00 58 1014.2
20260503182616 22 12 0.0 3.2 0.00 0.00 0.00 58 1014.3
20260503182019 22 344 0.0 3.2 0.00 0.00 0.00 58 1014.3
20260503181515 22 23 0.0 3.2 0.00 0.00 0.00 57 1014.3
20260503181014 22 355 0.0 1.6 0.00 0.00 0.00 59 1014.4
20260503180513 22 215 0.0 3.2 0.00 0.00 0.00 60 1014.4
20260503180012 22 345 0.0 3.2 0.00 0.00 0.00 61 1014.6
20260503175511 22 24 0.0 3.2 0.00 0.00 0.00 59 1014.5
20260503175011 22 319 0.0 4.8 0.00 0.00 0.00 61 1014.6
20260503174515 22 215 0.0 4.8 0.00 0.00 0.00 60 1014.6
20260503174009 22 221 0.0 4.8 0.00 0.00 0.00 61 1014.6
20260503173509 22 39 0.0 3.2 0.00 0.00 0.00 60 1014.6
20260503173008 21 321 0.0 1.6 0.00 0.00 0.00 62 1014.6
20260503172607 21 225 0.0 3.2 0.00 0.00 0.00 61 1014.7
20260503172007 21 257 0.0 3.2 0.00 0.00 0.00 61 1014.8
20260503171508 21 227 0.0 3.2 0.00 0.00 0.00 62 1014.8
20260503171008 21 245 0.0 4.8 0.00 0.00 0.00 62 1014.7
20260503170508 21 217 1.6 4.8 0.00 0.00 0.00 62 1014.8
20260503150547 19 74 0.0 1.6 0.00 0.00 0.00 55 1015.1
20260503131026 11 259 0.0 3.2 0.00 0.00 0.00 82 1015.0
20260503130527 11 259 0.0 1.6 0.00 0.00 0.00 83 1015.0
20260503110516 12 86 0.0 0.0 0.00 0.00 0.00 81 1015.2
20260503090502 15 279 1.6 6.4 0.00 0.00 0.00 82 1015.4
20260503081512 13 177 0.0 1.6 0.00 0.00 0.00 88 1015.8
20260503081003 13 176 0.0 1.6 0.00 0.00 0.00 89 1015.8
20260503080503 13 176 0.0 1.6 0.00 0.00 0.00 89 1015.7
20260503072505 14 284 0.0 0.0 0.00 0.00 0.00 88 1015.6
20260503071603 14 284 0.0 0.0 0.00 0.00 0.00 88 1015.7
20260503071102 14 284 0.0 0.0 0.00 0.00 0.00 88 1015.5
20260503070600 14 284 0.0 0.0 0.00 0.00 0.00 88 1015.5
20260503070105 14 284 0.0 0.0 0.00 0.00 0.00 87 1015.5
20260503060103 15 286 0.0 4.8 0.00 0.00 0.00 86 1015.2
20260503055102 15 287 1.6 6.4 0.00 0.00 0.00 85 1015.2
20260503054604 15 288 1.6 3.2 0.00 0.00 0.00 84 1015.1
20260503054058 15 288 0.0 3.2 0.00 0.00 0.00 84 1015.3
20260503053558 15 288 0.0 0.0 0.00 0.00 0.00 84 1015.2
20260503053058 15 288 0.0 0.0 0.00 0.00 0.00 83 1015.4
20260503052558 16 288 0.0 1.6 0.00 0.00 0.00 82 1015.3
20260503052001 16 288 0.0 1.6 0.00 0.00 0.00 82 1015.3
20260503051501 16 288 0.0 1.6 0.00 0.00 0.00 82 1015.3
20260503051100 16 288 0.0 0.0 0.00 0.00 0.00 82 1015.3
20260503050600 16 288 0.0 3.2 0.00 0.00 0.00 81 1015.3
20260503050100 16 288 0.0 3.2 0.00 0.00 0.00 80 1015.3
20260503045600 16 288 0.0 3.2 0.00 0.00 0.00 79 1015.2
20260503045100 17 288 0.0 3.2 0.00 0.00 0.00 77 1015.1
20260503044610 17 288 0.0 3.2 0.00 0.00 0.00 75 1015.1
20260503044100 17 288 0.0 1.6 0.00 0.00 0.00 74 1015.0
20260503043559 17 288 0.0 1.6 0.00 0.00 0.00 73 1015.0
20260503043100 18 288 0.0 0.0 0.00 0.00 0.00 71 1015.0
20260503042600 17 214 0.0 0.0 0.00 0.00 0.00 71 1014.9
20260503041601 17 215 0.0 1.6 0.00 0.00 0.00 70 1014.8
20260503041059 17 214 0.0 0.0 0.00 0.00 0.00 70 1014.8
20260503040559 18 214 0.0 0.0 0.00 0.00 0.00 68 1014.6
20260503040104 18 214 0.0 0.0 0.00 0.00 0.00 68 1014.7
20260503035558 18 215 0.0 0.0 0.00 0.00 0.00 69 1014.6
20260503035101 18 215 0.0 0.0 0.00 0.00 0.00 68 1014.6
20260503034604 18 214 0.0 0.0 0.00 0.00 0.00 68 1014.5
20260503034058 18 215 0.0 0.0 0.00 0.00 0.00 69 1014.4
20260503033601 19 214 0.0 0.0 0.00 0.00 0.00 68 1014.3
20260503033059 19 215 0.0 0.0 0.00 0.00 0.00 67 1014.2
20260503032558 20 288 0.0 1.6 0.00 0.00 0.00 67 1014.2
20260503031557 20 288 0.0 1.6 0.00 0.00 0.00 66 1014.1
20260503031057 20 288 0.0 1.6 0.00 0.00 0.00 65 1014.0
20260503030556 21 288 0.0 1.6 0.00 0.00 0.00 64 1014.0
20260503030126 21 288 0.0 1.6 0.00 0.00 0.00 62 1014.0
20260503025556 21 288 0.0 3.2 0.00 0.00 0.00 61 1014.0
20260503025100 21 288 0.0 4.8 0.00 0.00 0.00 60 1013.9
20260503024604 21 288 0.0 4.8 0.00 0.00 0.00 61 1013.9
20260503024056 22 288 3.2 6.4 0.00 0.00 0.00 60 1013.9
20260503023557 22 288 1.6 6.4 0.00 0.00 0.00 59 1014.0
20260503023056 22 288 1.6 8.0 0.00 0.00 0.00 59 1013.7
20260503022556 22 288 3.2 8.0 0.00 0.00 0.00 58 1013.8
20260503021605 23 289 4.8 11.3 0.00 0.00 0.00 57 1013.8
20260503021053 23 290 6.4 11.3 0.00 0.00 0.00 57 1013.7
20260503020553 23 289 3.2 11.3 0.00 0.00 0.00 57 1013.8
20260503020053 23 287 3.2 11.3 0.00 0.00 0.00 57 1013.7
20260503015552 23 287 4.8 12.9 0.00 0.00 0.00 57 1013.7
20260503015052 23 292 6.4 12.9 0.00 0.00 0.00 56 1013.7
20260503014603 23 285 6.4 12.9 0.00 0.00 0.00 56 1013.7
20260503014051 23 292 3.2 14.5 0.00 0.00 0.00 56 1013.7
20260503013551 23 288 4.8 14.5 0.00 0.00 0.00 56 1013.6
20260503013053 24 275 8.0 14.5 0.00 0.00 0.00 56 1013.7
20260503012550 23 268 3.2 9.7 0.00 0.00 0.00 57 1013.8
20260503011558 23 275 4.8 11.3 0.00 0.00 0.00 57 1013.7
20260503011049 24 288 4.8 12.9 0.00 0.00 0.00 56 1013.6
20260503010549 23 285 9.7 12.9 0.00 0.00 0.00 57 1013.7
20260503010103 23 285 4.8 14.5 0.00 0.00 0.00 57 1013.7
20260503005550 24 304 8.0 14.5 0.00 0.00 0.00 57 1013.9
20260503005046 24 286 3.2 11.3 0.00 0.00 0.00 58 1013.7
20260503004550 23 298 6.4 12.9 0.00 0.00 0.00 58 1013.7
20260503004047 24 312 4.8 12.9 0.00 0.00 0.00 59 1013.9
20260503003545 24 252 6.4 12.9 0.00 0.00 0.00 58 1013.9
20260503003055 24 273 6.4 17.7 0.00 0.00 0.00 57 1013.9
20260503002544 24 279 6.4 14.5 0.00 0.00 0.00 59 1013.9
20260503001543 23 278 4.8 14.5 0.00 0.00 0.00 59 1013.9
20260503001144 24 282 9.7 14.5 0.00 0.00 0.00 58 1013.9
20260503000540 23 275 8.0 16.1 0.00 0.00 0.00 61 1013.9
20260503000040 23 244 4.8 16.1 0.00 0.00 0.00 59 1014.0
20260502235543 24 257 8.0 16.1 0.00 0.00 0.00 58 1013.9
20260502235040 24 288 8.0 16.1 0.00 0.00 0.00 57 1014.0
20260502234541 24 265 4.8 12.9 0.00 0.00 0.00 58 1014.0
20260502234041 24 305 8.0 16.1 0.00 0.00 0.00 57 1014.2
20260502233538 24 273 4.8 19.3 0.00 0.00 0.00 58 1014.3
20260502233036 24 287 11.3 19.3 0.00 0.00 0.00 58 1014.3
20260502232535 23 210 0.0 6.4 0.00 0.00 0.00 60 1014.4
20260502231537 23 196 1.6 6.4 0.00 0.00 0.00 60 1014.5
20260502231034 22 213 1.6 4.8 0.00 0.00 0.00 62 1014.6
20260502230534 22 215 0.0 4.8 0.00 0.00 0.00 63 1014.7
20260502230034 22 223 1.6 4.8 0.00 0.00 0.00 63 1014.9
20260502225532 22 175 0.0 6.4 0.00 0.00 0.00 62 1014.9
20260502225031 22 199 0.0 4.8 0.00 0.00 0.00 62 1015.0
20260502224531 22 200 0.0 4.8 0.00 0.00 0.00 62 1015.1
20260502224034 22 219 0.0 4.8 0.00 0.00 0.00 61 1015.2
20260502223533 22 198 1.6 4.8 0.00 0.00 0.00 60 1015.2
20260502223030 22 217 0.0 4.8 0.00 0.00 0.00 60 1015.2
20260502222529 22 225 1.6 6.4 0.00 0.00 0.00 60 1015.3
20260502221526 22 19 0.0 6.4 0.00 0.00 0.00 59 1015.4
20260502221025 22 240 1.6 6.4 0.00 0.00 0.00 60 1015.5
20260502220525 22 265 0.0 9.7 0.00 0.00 0.00 60 1015.5
20260502220025 22 219 1.6 9.7 0.00 0.00 0.00 60 1015.6
20260502215525 22 198 3.2 9.7 0.00 0.00 0.00 59 1015.6
20260502215023 22 188 0.0 8.0 0.00 0.00 0.00 60 1015.7
20260502214521 22 244 1.6 6.4 0.00 0.00 0.00 61 1015.7
20260502214023 22 355 0.0 4.8 0.00 0.00 0.00 61 1015.8
20260502213521 21 213 0.0 6.4 0.00 0.00 0.00 61 1015.7
20260502213035 21 241 1.6 8.0 0.00 0.00 0.00 61 1015.8
20260502212519 22 202 0.0 6.4 0.00 0.00 0.00 60 1015.9
20260502211522 22 215 0.0 6.4 0.00 0.00 0.00 59 1016.0
20260502211018 22 259 0.0 11.3 0.00 0.00 0.00 62 1016.0
20260502210521 21 325 1.6 11.3 0.00 0.00 0.00 63 1016.0
20260502210016 21 200 0.0 3.2 0.00 0.00 0.00 62 1016.1
20260502205515 21 197 0.0 3.2 0.00 0.00 0.00 64 1016.1
20260502205015 21 225 0.0 3.2 0.00 0.00 0.00 63 1016.2
20260502204513 21 73 1.6 4.8 0.00 0.00 0.00 63 1016.2
20260502204012 21 63 0.0 4.8 0.00 0.00 0.00 62 1016.2
20260502203512 20 300 0.0 4.8 0.00 0.00 0.00 63 1016.2
20260502203012 20 40 0.0 1.6 0.00 0.00 0.00 65 1016.2
20260502202511 21 360 3.2 14.5 0.00 0.00 0.00 64 1016.3
20260502201523 20 313 9.7 14.5 0.00 0.00 0.00 66 1016.3
20260502201047 21 279 8.0 12.9 0.00 0.00 0.00 65 1016.4
20260502200512 20 283 4.8 12.9 0.00 0.00 0.00 68 1016.4
20260502200011 20 208 6.4 9.7 0.00 0.00 0.00 67 1016.4
20260502195508 20 251 3.2 12.9 0.00 0.00 0.00 70 1016.6
20260502195008 19 236 4.8 12.9 0.00 0.00 0.00 70 1016.6
20260502194512 19 230 1.6 14.5 0.00 0.00 0.00 71 1016.7
20260502194009 19 235 9.7 14.5 0.00 0.00 0.00 71 1016.7
20260502193505 18 252 6.4 11.3 0.00 0.00 0.00 70 1016.7